Regional Weather Roundup
Issued by NWS New Orleans/Baton Rouge, LA

Home | Current Version | Previous Version | Text Only | Print | Product List | Glossary On
Versions: 1 2 3 4 5 6 7 8 9 10 11 12 13 14 15 16 17 18 19 20 21 22 23 24 25 26 27 28 29 30 31 32 33 34 35 36 37 38 39 40 41 42 43 44 45 46 47 48 49 50
000
ASUS44 KLIX 140910
RWRLIX
NEW ORLEANS REGIONAL WEATHER ROUNDUP
NATIONAL WEATHER SERVICE NEW ORLEANS LA
300 AM CST SUN FEB 14 2016

NOTE: "FAIR" INDICATES FEW OR NO CLOUDS BELOW 12,000 FEET WITH NO
      SIGNIFICANT WEATHER AND/OR OBSTRUCTIONS TO VISIBILITY.
      SKY/WX - SKY CONDITION AND SIGNIFICANT WEATHER.
      TMP - AIR TEMPERATURE.     DP    - DEWPOINT TEMPERATURE.
      RH  - RELATIVE HUMIDITY.   PRES  - PRESSURE.
      HI  - HEAT INDEX.          WCI   - WIND CHILL INDEX.

*  THESE STATIONS ARE NOT NWS OR FAA STATIONS AND ARE NOT UNDER
   NWS QUALITY CONTROL.

LAZ038-040-048-061>063-065>067-069-141000-
SOUTHEAST LOUISIANA

CITY           SKY/WX    TMP DP  RH WIND       PRES   REMARKS
N.O. AUDUBON   NOT AVBL
N.O. INTL ARPT PTCLDY    48  37  65 E3        30.24F
N.O. LAKEFRONT CLEAR     49  42  77 E7        30.25F
N.O. DOWNTOWN* NOT AVBL
RESERVE*         N/A     47  41  77 E5        30.23F
SLIDELL        PTCLDY    36  31  82 CALM      30.24F
BATON ROUGE    PTCLDY    44  37  76 E6        30.21F
BOOTHVILLE     PTCLDY    50  44  80 CALM      30.23F
BELLE CHASSE   CLEAR     38  36  92 CALM      30.24
BOGALUSA*        N/A     37  30  75 CALM      30.27F
GALLIANO*      MOSUNNY   52  44  75 E3        30.23F
NEW ROADS*       N/A     46  38  76 E6        30.21F
GONZALES*        N/A     43  42  94 CALM      30.22F
HAMMOND*       CLEAR     43  25  49 E6        30.24F
HOUMA*         CLEAR     42  41  98 NE5       30.23F
PORT FOURCHON* SUNNY     55  45  67 E10       30.23F

$$

MSZ070-080>082-141000-
SOUTHERN MISSISSIPPI

CITY           SKY/WX    TMP DP  RH WIND       PRES   REMARKS
MCCOMB         CLOUDY    40  23  50 SE6       30.24F
GULFPORT       PTCLDY    41  24  51 E5        30.26F
BILOXI         PTCLDY    43  24  48 E7        30.26F
PASCAGOULA     PTCLDY    36  27  69 NE3       30.27F

$$

COASTAL OBSERVATIONS
LAKE AND NEARSHORE STATIONS

STATION/POSITION TIME  TEMP    WIND        PRES    WAVE
                       AIR SEA DIR/SP/G            HT/PER
                 (UTC) (F)     (DEG/KT/KT) (MB)    (FT/S)
PASCAGOULA       0800   44      70/  8/ 10 1024.8
WAVELAND YACHT   0800   46 54   80/  9/ 11 1024.6
GRAND ISLE       0800   55 62   90/  8/ 10 1023.9
NEW CANAL        0800   48 56   80/  3/  5 1023.7
SHELL BEACH      0800   53 57   80/ 10/ 11 1023.9

OFFSHORE STATIONS

STATION/POSITION TIME  TEMP    WIND        PRES    WAVE
                       AIR SEA DIR/SP/G            HT/PER
                 (UTC) (F)     (DEG/KT/KT) (MB)    (FT/S)

$$




USA.gov is the U.S. government's official web portal to all federal, state and local government web resources and services.